Location: Most
(50.5133°N, 13.6207°E)
Time: 09:41:57
(UTC+02:00)

ISS - Pass Details

Date: 20 July 2018
Orbit: 402 x 408 km, 51.6° (Epoch: 17 July)

Event Time Altitude Azimuth Distance (km) Brightness Sun altitude
Rises 00:37:25 0° 259° (W) 2,322 0.0 -18.4°
Reaches altitude 10° 00:39:30 10° 261° (W) 1,464 -1.0 -18.4°
Maximum altitude 00:42:47 82° 349° (N) 415 -3.8 -18.5°
Drops below altitude 10° 00:46:05 10° 77° (ENE) 1,470 -0.9 -18.5°
Sets 00:48:11 0° 79° (E) 2,332 0.1 -18.6°
